| time (UTC) | temp F | wind direction | speed MPH | gust MPH | rain 1hr in | rain 24hr in | rain mn in | humidity % | barometer mb |
| 20260903103002 | 73 | 125 | 2.0 | 2.0 | 0.00 | 0.00 | 0.00 | 81 | 1018.4 |
| 20260903102457 | 73 | 21 | 2.0 | 2.0 | 0.00 | 0.00 | 0.00 | 81 | 1018.3 |
| 20260903101955 | 74 | 100 | 1.0 | 2.0 | 0.00 | 0.00 | 0.00 | 81 | 1018.3 |
| 20260903101450 | 74 | 26 | 2.0 | 2.0 | 0.00 | 0.00 | 0.00 | 82 | 1018.4 |
| 20260903100946 | 74 | 46 | 1.0 | 1.0 | 0.00 | 0.00 | 0.00 | 84 | 1018.5 |
| 20260903100441 | 73 | 84 | 0.0 | 0.0 | 0.00 | 0.00 | 0.00 | 86 | 1018.3 |
| 20260903095938 | 73 | 46 | 1.0 | 1.0 | 0.00 | 0.00 | 0.00 | 87 | 1017.6 |
| 20260903095433 | 72 | 151 | 3.0 | 2.0 | 0.00 | 0.00 | 0.00 | 89 | 1017.8 |
| 20260903094927 | 72 | 27 | 3.0 | 3.0 | 0.00 | 0.00 | 0.00 | 90 | 1017.6 |
| 20260903094421 | 71 | 80 | 0.0 | 1.0 | 0.00 | 0.00 | 0.00 | 91 | 1017.3 |
| 20260903093918 | 71 | 104 | 0.0 | 0.0 | 0.00 | 0.00 | 0.00 | 91 | 1017.2 |
| 20260903093418 | 71 | 104 | 0.0 | 0.0 | 0.00 | 0.00 | 0.00 | 91 | 1017.1 |
| 20260903092913 | 71 | 134 | 0.0 | 0.0 | 0.00 | 0.00 | 0.00 | 91 | 1017.1 |
| 20260903092408 | 71 | 134 | 0.0 | 0.0 | 0.00 | 0.00 | 0.00 | 90 | 1017.0 |
| 20260903091907 | 71 | 134 | 0.0 | 0.0 | 0.00 | 0.00 | 0.00 | 90 | 1016.6 |
| 20260903091405 | 71 | 134 | 0.0 | 0.0 | 0.00 | 0.00 | 0.00 | 89 | 1016.9 |
| 20260903090900 | 71 | 134 | 0.0 | 0.0 | 0.00 | 0.00 | 0.00 | 89 | 1017.2 |
| 20260903090356 | 72 | 133 | 0.0 | 0.0 | 0.00 | 0.00 | 0.00 | 89 | 1017.0 |
| 20260903085854 | 72 | 134 | 0.0 | 0.0 | 0.00 | 0.00 | 0.00 | 88 | 1016.9 |
| 20260903085348 | 72 | 182 | 0.0 | 0.0 | 0.00 | 0.00 | 0.00 | 88 | 1016.9 |
| 20260903084847 | 72 | 182 | 0.0 | 0.0 | 0.00 | 0.00 | 0.00 | 87 | 1016.7 |
| 20260903084346 | 72 | 182 | 0.0 | 0.0 | 0.00 | 0.00 | 0.00 | 86 | 1016.7 |
| 20260903083842 | 72 | 182 | 1.0 | 1.0 | 0.00 | 0.00 | 0.00 | 86 | 1016.9 |
| 20260903083337 | 72 | 182 | 0.0 | 0.0 | 0.00 | 0.00 | 0.00 | 86 | 1016.7 |
| 20260903082836 | 72 | 182 | 0.0 | 0.0 | 0.00 | 0.00 | 0.00 | 86 | 1016.7 |
| 20260903082331 | 71 | 182 | 0.0 | 0.0 | 0.00 | 0.00 | 0.00 | 87 | 1016.6 |
| 20260903081827 | 71 | 182 | 0.0 | 0.0 | 0.00 | 0.00 | 0.00 | 87 | 1016.7 |
| 20260903081322 | 71 | 182 | 0.0 | 0.0 | 0.00 | 0.00 | 0.00 | 87 | 1016.9 |
| 20260903080818 | 71 | 182 | 0.0 | 0.0 | 0.00 | 0.00 | 0.00 | 88 | 1017.0 |
| 20260903080316 | 71 | 182 | 0.0 | 0.0 | 0.00 | 0.00 | 0.00 | 88 | 1016.8 |
| 20260903075815 | 71 | 182 | 1.0 | 1.0 | 0.00 | 0.00 | 0.00 | 88 | 1017.0 |
| 20260903075310 | 72 | 183 | 0.0 | 0.0 | 0.00 | 0.00 | 0.00 | 87 | 1017.1 |
| 20260903074809 | 72 | 183 | 1.0 | 1.0 | 0.00 | 0.00 | 0.00 | 86 | 1017.1 |
| 20260903074304 | 72 | 183 | 0.0 | 0.0 | 0.00 | 0.00 | 0.00 | 86 | 1017.3 |
| 20260903073800 | 72 | 183 | 0.0 | 0.0 | 0.00 | 0.00 | 0.00 | 85 | 1016.9 |
| 20260903073255 | 72 | 183 | 0.0 | 0.0 | 0.00 | 0.00 | 0.00 | 85 | 1017.0 |
| 20260903072751 | 72 | 182 | 0.0 | 0.0 | 0.00 | 0.00 | 0.00 | 84 | 1017.2 |
| 20260903072246 | 73 | 183 | 0.0 | 0.0 | 0.00 | 0.00 | 0.00 | 84 | 1016.9 |
| 20260903071738 | 73 | 182 | 0.0 | 0.0 | 0.00 | 0.00 | 0.00 | 83 | 1016.9 |
| 20260903071233 | 73 | 183 | 0.0 | 0.0 | 0.00 | 0.00 | 0.00 | 82 | 1016.8 |
| 20260903070732 | 74 | 183 | 1.0 | 0.0 | 0.00 | 0.00 | 0.00 | 81 | 1016.9 |
| 20260903070228 | 74 | 183 | 0.0 | 0.0 | 0.00 | 0.00 | 0.00 | 80 | 1017.2 |
| 20260903065723 | 75 | 183 | 0.0 | 0.0 | 0.00 | 0.00 | 0.00 | 78 | 1017.3 |
| 20260903065222 | 75 | 183 | 1.0 | 0.0 | 0.00 | 0.00 | 0.00 | 77 | 1017.3 |
| 20260903064721 | 76 | 184 | 0.0 | 0.0 | 0.00 | 0.00 | 0.00 | 75 | 1017.5 |
| 20260903064216 | 77 | 184 | 0.0 | 0.0 | 0.00 | 0.00 | 0.00 | 73 | 1017.6 |
| 20260903063713 | 77 | 185 | 0.0 | 0.0 | 0.00 | 0.00 | 0.00 | 72 | 1017.6 |
| 20260903063202 | 77 | 291 | 0.0 | 0.0 | 0.00 | 0.00 | 0.00 | 71 | 1017.7 |
| 20260903062658 | 78 | 261 | 1.0 | 1.0 | 0.00 | 0.00 | 0.00 | 70 | 1017.7 |
| 20260903062158 | 78 | 192 | 2.0 | 2.0 | 0.00 | 0.00 | 0.00 | 70 | 1017.7 |
| 20260903061654 | 79 | 43 | 1.0 | 1.0 | 0.00 | 0.00 | 0.00 | 70 | 1017.9 |
| 20260903061152 | 80 | 329 | 1.0 | 1.0 | 0.00 | 0.00 | 0.00 | 70 | 1017.9 |
| 20260903060648 | 80 | 208 | 1.0 | 2.0 | 0.00 | 0.00 | 0.00 | 73 | 1017.9 |
| 20260903060143 | 81 | 78 | 2.0 | 3.0 | 0.00 | 0.00 | 0.00 | 73 | 1017.8 |
| 20260903055640 | 81 | 270 | 5.0 | 8.0 | 0.00 | 0.00 | 0.00 | 75 | 1017.9 |
| 20260903055138 | 81 | 337 | 4.0 | 5.0 | 0.00 | 0.00 | 0.00 | 76 | 1017.8 |
| 20260903054633 | 81 | 348 | 2.0 | 2.0 | 0.00 | 0.00 | 0.00 | 76 | 1017.3 |
| 20260903054129 | 81 | 330 | 2.0 | 2.0 | 0.00 | 0.00 | 0.00 | 76 | 1017.2 |
| 20260903053625 | 81 | 22 | 1.0 | 1.0 | 0.00 | 0.00 | 0.00 | 75 | 1016.9 |
| 20260903053121 | 81 | 32 | 1.0 | 1.0 | 0.00 | 0.00 | 0.00 | 75 | 1016.9 |
| 20260903052616 | 81 | 305 | 3.0 | 5.0 | 0.00 | 0.00 | 0.00 | 75 | 1016.8 |
| 20260903052113 | 81 | 13 | 2.0 | 2.0 | 0.00 | 0.00 | 0.00 | 75 | 1016.9 |
| 20260903051612 | 81 | 317 | 2.0 | 2.0 | 0.00 | 0.00 | 0.00 | 74 | 1017.0 |
| 20260903051108 | 81 | 31 | 1.0 | 1.0 | 0.00 | 0.00 | 0.00 | 75 | 1016.7 |
| 20260903050607 | 81 | 193 | 1.0 | 2.0 | 0.00 | 0.00 | 0.00 | 74 | 1016.5 |
| 20260903045601 | 81 | 18 | 3.0 | 2.0 | 0.00 | 0.00 | 0.00 | 74 | 1016.3 |
| 20260903045059 | 81 | 168 | 2.0 | 1.0 | 0.00 | 0.00 | 0.00 | 74 | 1016.3 |
| 20260903044554 | 81 | 298 | 1.0 | 1.0 | 0.00 | 0.00 | 0.00 | 74 | 1016.2 |
| 20260903044049 | 81 | 175 | 1.0 | 1.0 | 0.00 | 0.00 | 0.00 | 74 | 1016.3 |
| 20260903043545 | 81 | 177 | 2.0 | 3.0 | 0.00 | 0.00 | 0.00 | 74 | 1016.1 |
| 20260903043045 | 81 | 154 | 1.0 | 1.0 | 0.00 | 0.00 | 0.00 | 74 | 1016.1 |
| 20260903042539 | 81 | 136 | 1.0 | 2.0 | 0.00 | 0.00 | 0.00 | 74 | 1016.3 |
| 20260903042035 | 81 | 155 | 2.0 | 2.0 | 0.00 | 0.00 | 0.00 | 74 | 1016.2 |
| 20260903041532 | 81 | 42 | 1.0 | 1.0 | 0.00 | 0.00 | 0.00 | 74 | 1015.8 |
| 20260903041027 | 81 | 143 | 0.0 | 0.0 | 0.00 | 0.00 | 0.00 | 73 | 1015.9 |
| 20260903040526 | 81 | 166 | 1.0 | 1.0 | 0.00 | 0.00 | 0.00 | 73 | 1015.7 |
| 20260903040023 | 81 | 239 | 3.0 | 5.0 | 0.00 | 0.00 | 0.00 | 73 | 1015.6 |
| 20260903035517 | 81 | 110 | 0.0 | 0.0 | 0.00 | 0.00 | 0.00 | 73 | 1015.8 |
| 20260903035014 | 81 | 37 | 1.0 | 1.0 | 0.00 | 0.00 | 0.00 | 73 | 1015.8 |
| 20260903034514 | 82 | 228 | 1.0 | 1.0 | 0.00 | 0.00 | 0.00 | 72 | 1015.8 |
| 20260903034008 | 82 | 268 | 1.0 | 1.0 | 0.00 | 0.00 | 0.00 | 72 | 1015.5 |
| 20260903033503 | 82 | 131 | 1.0 | 2.0 | 0.00 | 0.00 | 0.00 | 71 | 1015.4 |
| 20260903032958 | 82 | 181 | 1.0 | 2.0 | 0.00 | 0.00 | 0.00 | 71 | 1015.5 |
| 20260903032453 | 82 | 226 | 1.0 | 1.0 | 0.00 | 0.00 | 0.00 | 72 | 1015.5 |
| 20260903031948 | 82 | 196 | 2.0 | 2.0 | 0.00 | 0.00 | 0.00 | 72 | 1015.5 |
| 20260903031443 | 82 | 243 | 1.0 | 1.0 | 0.00 | 0.00 | 0.00 | 71 | 1015.5 |
| 20260903030938 | 82 | 268 | 2.0 | 3.0 | 0.00 | 0.00 | 0.00 | 71 | 1015.7 |
| 20260903030434 | 82 | 355 | 1.0 | 1.0 | 0.00 | 0.00 | 0.00 | 71 | 1016.0 |
| 20260903025930 | 81 | 97 | 0.0 | 1.0 | 0.00 | 0.00 | 0.00 | 72 | 1015.8 |
| 20260903025425 | 81 | 168 | 2.0 | 2.0 | 0.00 | 0.00 | 0.00 | 72 | 1016.3 |
| 20260903024920 | 81 | 147 | 0.0 | 0.0 | 0.00 | 0.00 | 0.00 | 73 | 1016.3 |
| 20260903024414 | 81 | 154 | 1.0 | 1.0 | 0.00 | 0.00 | 0.00 | 73 | 1016.5 |
| 20260903023909 | 81 | 109 | 0.0 | 0.0 | 0.00 | 0.00 | 0.00 | 73 | 1016.7 |
| 20260903023405 | 80 | 176 | 1.0 | 1.0 | 0.00 | 0.00 | 0.00 | 74 | 1016.6 |
| 20260903022901 | 80 | 138 | 0.0 | 1.0 | 0.00 | 0.00 | 0.00 | 75 | 1016.8 |
| 20260903022359 | 80 | 114 | 0.0 | 0.0 | 0.00 | 0.00 | 0.00 | 75 | 1016.8 |
| 20260903021857 | 80 | 147 | 1.0 | 1.0 | 0.00 | 0.00 | 0.00 | 76 | 1016.7 |
| 20260903021354 | 80 | 145 | 0.0 | 0.0 | 0.00 | 0.00 | 0.00 | 76 | 1016.5 |
| 20260903020853 | 80 | 152 | 0.0 | 0.0 | 0.00 | 0.00 | 0.00 | 76 | 1016.6 |
| 20260903020348 | 80 | 114 | 0.0 | 0.0 | 0.00 | 0.00 | 0.00 | 76 | 1016.9 |
| 20260903015843 | 80 | 172 | 1.0 | 1.0 | 0.00 | 0.00 | 0.00 | 76 | 1016.7 |
| 20260903015338 | 80 | 154 | 1.0 | 1.0 | 0.00 | 0.00 | 0.00 | 78 | 1016.7 |
| 20260903014833 | 80 | 143 | 0.0 | 0.0 | 0.00 | 0.00 | 0.00 | 78 | 1016.3 |
| 20260903014328 | 80 | 173 | 1.0 | 1.0 | 0.00 | 0.00 | 0.00 | 78 | 1016.7 |
| 20260903013823 | 79 | 7 | 1.0 | 1.0 | 0.00 | 0.00 | 0.00 | 79 | 1016.9 |
| 20260903013322 | 79 | 159 | 0.0 | 0.0 | 0.00 | 0.00 | 0.00 | 81 | 1016.8 |
| 20260903012821 | 78 | 172 | 2.0 | 1.0 | 0.00 | 0.00 | 0.00 | 82 | 1016.7 |
| 20260903012315 | 78 | 136 | 0.0 | 0.0 | 0.00 | 0.00 | 0.00 | 83 | 1016.9 |
| 20260903011809 | 78 | 147 | 0.0 | 0.0 | 0.00 | 0.00 | 0.00 | 84 | 1016.9 |
| 20260903011308 | 78 | 147 | 0.0 | 0.0 | 0.00 | 0.00 | 0.00 | 84 | 1016.8 |
| 20260903010803 | 78 | 147 | 0.0 | 0.0 | 0.00 | 0.00 | 0.00 | 84 | 1016.9 |
| 20260903010259 | 78 | 147 | 0.0 | 0.0 | 0.00 | 0.00 | 0.00 | 83 | 1016.5 |
| 20260903005757 | 78 | 147 | 0.0 | 0.0 | 0.00 | 0.00 | 0.00 | 82 | 1016.5 |
| 20260903005252 | 79 | 147 | 0.0 | 0.0 | 0.00 | 0.00 | 0.00 | 81 | 1016.7 |
| 20260903004748 | 79 | 147 | 0.0 | 0.0 | 0.00 | 0.00 | 0.00 | 80 | 1016.6 |
| 20260903004244 | 80 | 147 | 0.0 | 0.0 | 0.00 | 0.00 | 0.00 | 79 | 1016.3 |
| 20260903003739 | 80 | 147 | 0.0 | 0.0 | 0.00 | 0.00 | 0.00 | 78 | 1016.6 |
| 20260903003234 | 80 | 147 | 0.0 | 0.0 | 0.00 | 0.00 | 0.00 | 77 | 1016.5 |
| 20260903002728 | 81 | 147 | 1.0 | 1.0 | 0.00 | 0.00 | 0.00 | 76 | 1016.3 |
| 20260903002223 | 81 | 147 | 0.0 | 0.0 | 0.00 | 0.00 | 0.00 | 74 | 1016.1 |
| 20260903001719 | 82 | 147 | 0.0 | 0.0 | 0.00 | 0.00 | 0.00 | 73 | 1016.3 |
| 20260903001212 | 82 | 147 | 0.0 | 0.0 | 0.00 | 0.00 | 0.00 | 72 | 1016.2 |
| 20260903000708 | 83 | 147 | 0.0 | 0.0 | 0.00 | 0.00 | 0.00 | 71 | 1016.1 |
| 20260903000204 | 83 | 147 | 0.0 | 0.0 | 0.00 | 0.00 | 0.00 | 70 | 1016.0 |
| 20260902235700 | 84 | 147 | 1.0 | 1.0 | 0.00 | 0.00 | 0.00 | 69 | 1016.1 |
| 20260902235156 | 84 | 170 | 1.0 | 0.0 | 0.00 | 0.00 | 0.00 | 68 | 1016.2 |
| 20260902234655 | 84 | 157 | 1.0 | 0.0 | 0.00 | 0.00 | 0.00 | 66 | 1016.3 |
| 20260902234154 | 85 | 137 | 0.0 | 0.0 | 0.00 | 0.00 | 0.00 | 66 | 1016.1 |
| 20260902233649 | 86 | 167 | 1.0 | 1.0 | 0.00 | 0.00 | 0.00 | 65 | 1016.3 |
| 20260902233149 | 86 | 167 | 0.0 | 0.0 | 0.00 | 0.00 | 0.00 | 63 | 1016.2 |
| 20260902232648 | 86 | 91 | 0.0 | 0.0 | 0.00 | 0.00 | 0.00 | 63 | 1016.1 |
| 20260902232147 | 87 | 159 | 1.0 | 1.0 | 0.00 | 0.00 | 0.00 | 63 | 1016.3 |
| 20260902231642 | 87 | 175 | 1.0 | 1.0 | 0.00 | 0.00 | 0.00 | 60 | 1016.3 |
| 20260902231137 | 87 | 313 | 1.0 | 2.0 | 0.00 | 0.00 | 0.00 | 60 | 1016.0 |
| 20260902230632 | 87 | 164 | 1.0 | 1.0 | 0.00 | 0.00 | 0.00 | 59 | 1016.5 |
| 20260902230130 | 88 | 44 | 2.0 | 1.0 | 0.00 | 0.00 | 0.00 | 58 | 1016.2 |
| 20260902225626 | 88 | 286 | 2.0 | 3.0 | 0.00 | 0.00 | 0.00 | 58 | 1016.5 |
| 20260902225125 | 89 | 353 | 3.0 | 3.0 | 0.00 | 0.00 | 0.00 | 59 | 1016.1 |
| 20260902224624 | 89 | 143 | 0.0 | 1.0 | 0.00 | 0.00 | 0.00 | 60 | 1016.0 |
| 20260902224120 | 89 | 112 | 0.0 | 0.0 | 0.00 | 0.00 | 0.00 | 58 | 1016.3 |
| 20260902223616 | 89 | 77 | 0.0 | 0.0 | 0.00 | 0.00 | 0.00 | 58 | 1016.0 |
| 20260902223115 | 89 | 133 | 0.0 | 0.0 | 0.00 | 0.00 | 0.00 | 57 | 1016.3 |
| 20260902222614 | 89 | 296 | 1.0 | 1.0 | 0.00 | 0.00 | 0.00 | 56 | 1016.1 |
| 20260902222113 | 89 | 76 | 1.0 | 1.0 | 0.00 | 0.00 | 0.00 | 56 | 1016.2 |
| 20260902221608 | 90 | 223 | 3.0 | 3.0 | 0.00 | 0.00 | 0.00 | 55 | 1016.2 |
| 20260902221103 | 91 | 29 | 2.0 | 2.0 | 0.00 | 0.00 | 0.00 | 53 | 1016.0 |
| 20260902220558 | 91 | 211 | 3.0 | 2.0 | 0.00 | 0.00 | 0.00 | 54 | 1016.0 |
| 20260902220052 | 91 | 283 | 2.0 | 2.0 | 0.00 | 0.00 | 0.00 | 53 | 1015.9 |
| 20260902215549 | 92 | 334 | 2.0 | 2.0 | 0.00 | 0.00 | 0.00 | 52 | 1016.3 |
| 20260902215043 | 93 | 12 | 3.0 | 3.0 | 0.00 | 0.00 | 0.00 | 50 | 1016.2 |
| 20260902214538 | 94 | 315 | 2.0 | 2.0 | 0.00 | 0.00 | 0.00 | 50 | 1016.0 |
| 20260902214037 | 93 | 149 | 1.0 | 1.0 | 0.00 | 0.00 | 0.00 | 52 | 1016.1 |
| 20260902213533 | 91 | 161 | 1.0 | 1.0 | 0.00 | 0.00 | 0.00 | 55 | 1016.0 |
| 20260902213032 | 91 | 126 | 2.0 | 2.0 | 0.00 | 0.00 | 0.00 | 54 | 1016.3 |
| 20260902212528 | 92 | 170 | 2.0 | 2.0 | 0.00 | 0.00 | 0.00 | 54 | 1016.2 |
| 20260902212024 | 92 | 351 | 3.0 | 3.0 | 0.00 | 0.00 | 0.00 | 52 | 1016.3 |
| 20260902211520 | 92 | 173 | 1.0 | 1.0 | 0.00 | 0.00 | 0.00 | 51 | 1016.2 |
| 20260902211014 | 94 | 47 | 4.0 | 7.0 | 0.00 | 0.00 | 0.00 | 50 | 1016.2 |
| 20260902210509 | 94 | 236 | 4.0 | 5.0 | 0.00 | 0.00 | 0.00 | 51 | 1016.3 |
| 20260902210008 | 94 | 305 | 3.0 | 3.0 | 0.00 | 0.00 | 0.00 | 51 | 1016.6 |
| 20260902205502 | 93 | 199 | 1.0 | 1.0 | 0.00 | 0.00 | 0.00 | 50 | 1016.3 |
| 20260902204958 | 93 | 165 | 1.0 | 1.0 | 0.00 | 0.00 | 0.00 | 51 | 1016.6 |
| 20260902204457 | 93 | 83 | 2.0 | 2.0 | 0.00 | 0.00 | 0.00 | 49 | 1016.8 |
| 20260902203952 | 94 | 250 | 3.0 | 5.0 | 0.00 | 0.00 | 0.00 | 49 | 1016.8 |
| 20260902203448 | 94 | 51 | 1.0 | 1.0 | 0.00 | 0.00 | 0.00 | 50 | 1016.7 |
| 20260902202946 | 93 | 296 | 1.0 | 2.0 | 0.00 | 0.00 | 0.00 | 52 | 1016.8 |
| 20260902202443 | 91 | 149 | 2.0 | 2.0 | 0.00 | 0.00 | 0.00 | 56 | 1016.9 |
| 20260902201939 | 91 | 312 | 2.0 | 2.0 | 0.00 | 0.00 | 0.00 | 57 | 1016.9 |
| 20260902201434 | 91 | 332 | 2.0 | 2.0 | 0.00 | 0.00 | 0.00 | 56 | 1017.0 |
| 20260902200934 | 91 | 295 | 1.0 | 1.0 | 0.00 | 0.00 | 0.00 | 55 | 1017.1 |
| 20260902200430 | 92 | 332 | 4.0 | 6.0 | 0.00 | 0.00 | 0.00 | 54 | 1017.1 |
| 20260902195925 | 93 | 34 | 2.0 | 3.0 | 0.00 | 0.00 | 0.00 | 51 | 1017.1 |
| 20260902195420 | 93 | 338 | 2.0 | 2.0 | 0.00 | 0.00 | 0.00 | 53 | 1017.2 |
| 20260902194915 | 94 | 64 | 1.0 | 1.0 | 0.00 | 0.00 | 0.00 | 49 | 1017.1 |
| 20260902194414 | 95 | 327 | 4.0 | 5.0 | 0.00 | 0.00 | 0.00 | 49 | 1017.3 |
| 20260902193909 | 95 | 291 | 4.0 | 5.0 | 0.00 | 0.00 | 0.00 | 51 | 1017.4 |
| 20260902193405 | 94 | 228 | 3.0 | 3.0 | 0.00 | 0.00 | 0.00 | 50 | 1017.2 |
| 20260902192903 | 93 | 274 | 1.0 | 2.0 | 0.00 | 0.00 | 0.00 | 52 | 1017.5 |
| 20260902192402 | 92 | 339 | 1.0 | 2.0 | 0.00 | 0.00 | 0.00 | 53 | 1017.4 |
| 20260902191856 | 94 | 339 | 4.0 | 8.0 | 0.00 | 0.00 | 0.00 | 52 | 1017.6 |
| 20260902191352 | 94 | 321 | 5.0 | 7.0 | 0.00 | 0.00 | 0.00 | 52 | 1017.4 |
| 20260902190842 | 94 | 302 | 3.0 | 5.0 | 0.00 | 0.00 | 0.00 | 52 | 1017.4 |
| 20260902190341 | 94 | 42 | 3.0 | 3.0 | 0.00 | 0.00 | 0.00 | 50 | 1017.6 |
| 20260902185838 | 95 | 293 | 2.0 | 2.0 | 0.00 | 0.00 | 0.00 | 50 | 1017.6 |
| 20260902185332 | 95 | 329 | 3.0 | 3.0 | 0.00 | 0.00 | 0.00 | 50 | 1017.7 |
| 20260902184828 | 93 | 115 | 2.0 | 2.0 | 0.00 | 0.00 | 0.00 | 52 | 1017.6 |
| 20260902184324 | 94 | 358 | 7.0 | 8.0 | 0.00 | 0.00 | 0.00 | 52 | 1017.7 |
| 20260902183819 | 95 | 64 | 3.0 | 3.0 | 0.00 | 0.00 | 0.00 | 53 | 1017.8 |
| 20260902183315 | 94 | 140 | 2.0 | 1.0 | 0.00 | 0.00 | 0.00 | 53 | 1017.9 |
| 20260902182811 | 94 | 263 | 3.0 | 5.0 | 0.00 | 0.00 | 0.00 | 52 | 1018.0 |
| 20260902182307 | 93 | 15 | 1.0 | 1.0 | 0.00 | 0.00 | 0.00 | 55 | 1017.8 |
| 20260902181803 | 94 | 314 | 2.0 | 2.0 | 0.00 | 0.00 | 0.00 | 52 | 1018.1 |
| 20260902181258 | 94 | 85 | 1.0 | 1.0 | 0.00 | 0.00 | 0.00 | 52 | 1017.9 |
| 20260902180752 | 95 | 187 | 3.0 | 5.0 | 0.00 | 0.00 | 0.00 | 49 | 1018.4 |
| 20260902180248 | 94 | 28 | 1.0 | 1.0 | 0.00 | 0.00 | 0.00 | 49 | 1018.2 |
| 20260902175743 | 94 | 298 | 2.0 | 1.0 | 0.00 | 0.00 | 0.00 | 50 | 1018.3 |
| 20260902175239 | 94 | 313 | 3.0 | 3.0 | 0.00 | 0.00 | 0.00 | 50 | 1018.3 |
| 20260902174734 | 94 | 335 | 4.0 | 5.0 | 0.00 | 0.00 | 0.00 | 53 | 1018.3 |
| 20260902174230 | 94 | 115 | 1.0 | 2.0 | 0.00 | 0.00 | 0.00 | 49 | 1018.2 |
| 20260902173725 | 94 | 338 | 2.0 | 2.0 | 0.00 | 0.00 | 0.00 | 53 | 1018.5 |
| 20260902173220 | 94 | 160 | 3.0 | 3.0 | 0.00 | 0.00 | 0.00 | 52 | 1018.5 |
| 20260902172715 | 93 | 148 | 0.0 | 0.0 | 0.00 | 0.00 | 0.00 | 51 | 1018.7 |
| 20260902172214 | 93 | 336 | 1.0 | 1.0 | 0.00 | 0.00 | 0.00 | 52 | 1018.8 |
| 20260902171709 | 94 | 271 | 3.0 | 2.0 | 0.00 | 0.00 | 0.00 | 51 | 1018.8 |
| 20260902171205 | 93 | 173 | 1.0 | 1.0 | 0.00 | 0.00 | 0.00 | 50 | 1018.6 |
| 20260902170701 | 93 | 300 | 3.0 | 3.0 | 0.00 | 0.00 | 0.00 | 53 | 1018.8 |
| 20260902170156 | 93 | 293 | 2.0 | 2.0 | 0.00 | 0.00 | 0.00 | 52 | 1018.7 |
| 20260902165656 | 92 | 246 | 2.0 | 2.0 | 0.00 | 0.00 | 0.00 | 51 | 1018.8 |
| 20260902165150 | 92 | 98 | 1.0 | 2.0 | 0.00 | 0.00 | 0.00 | 53 | 1018.7 |
| 20260902164646 | 93 | 247 | 1.0 | 2.0 | 0.00 | 0.00 | 0.00 | 54 | 1018.6 |
| 20260902164145 | 93 | 251 | 2.0 | 2.0 | 0.00 | 0.00 | 0.00 | 53 | 1018.9 |
| 20260902163640 | 92 | 127 | 2.0 | 2.0 | 0.00 | 0.00 | 0.00 | 56 | 1018.7 |
| 20260902163140 | 91 | 7 | 1.0 | 1.0 | 0.00 | 0.00 | 0.00 | 58 | 1018.8 |
| 20260902162638 | 91 | 112 | 0.0 | 0.0 | 0.00 | 0.00 | 0.00 | 56 | 1018.9 |
| 20260902162133 | 91 | 246 | 2.0 | 1.0 | 0.00 | 0.00 | 0.00 | 57 | 1018.9 |
| 20260902161628 | 91 | 301 | 4.0 | 5.0 | 0.00 | 0.00 | 0.00 | 56 | 1019.0 |
| 20260902161124 | 91 | 65 | 0.0 | 0.0 | 0.00 | 0.00 | 0.00 | 61 | 1019.0 |
| 20260902160620 | 91 | 187 | 1.0 | 1.0 | 0.00 | 0.00 | 0.00 | 58 | 1019.2 |
| 20260902160115 | 91 | 107 | 1.0 | 1.0 | 0.00 | 0.00 | 0.00 | 58 | 1019.3 |
| 20260902155613 | 91 | 159 | 0.0 | 0.0 | 0.00 | 0.00 | 0.00 | 59 | 1019.2 |
| 20260902155112 | 91 | 178 | 0.0 | 0.0 | 0.00 | 0.00 | 0.00 | 58 | 1019.3 |
| 20260902154608 | 91 | 175 | 2.0 | 2.0 | 0.00 | 0.00 | 0.00 | 61 | 1019.3 |
| 20260902154103 | 90 | 109 | 1.0 | 1.0 | 0.00 | 0.00 | 0.00 | 60 | 1019.3 |
| 20260902153601 | 89 | 0 | 2.0 | 2.0 | 0.00 | 0.00 | 0.00 | 64 | 1019.2 |
| 20260902153057 | 87 | 354 | 2.0 | 2.0 | 0.00 | 0.00 | 0.00 | 63 | 1019.3 |
| 20260902152553 | 88 | 301 | 3.0 | 3.0 | 0.00 | 0.00 | 0.00 | 61 | 1019.6 |
| 20260902152048 | 88 | 333 | 2.0 | 2.0 | 0.00 | 0.00 | 0.00 | 61 | 1019.4 |
| 20260902151544 | 88 | 343 | 2.0 | 5.0 | 0.00 | 0.00 | 0.00 | 64 | 1019.4 |
| 20260902151043 | 88 | 329 | 4.0 | 5.0 | 0.00 | 0.00 | 0.00 | 63 | 1019.4 |
| 20260902150539 | 89 | 350 | 4.0 | 5.0 | 0.00 | 0.00 | 0.00 | 62 | 1019.3 |
| 20260902150034 | 89 | 171 | 2.0 | 2.0 | 0.00 | 0.00 | 0.00 | 61 | 1019.3 |
| 20260902145529 | 89 | 311 | 3.0 | 2.0 | 0.00 | 0.00 | 0.00 | 62 | 1019.6 |
| 20260902145028 | 89 | 349 | 2.0 | 2.0 | 0.00 | 0.00 | 0.00 | 63 | 1019.3 |
| 20260902144525 | 88 | 358 | 2.0 | 2.0 | 0.00 | 0.00 | 0.00 | 64 | 1019.2 |
| 20260902144020 | 88 | 95 | 0.0 | 0.0 | 0.00 | 0.00 | 0.00 | 65 | 1019.3 |
| 20260902143515 | 87 | 139 | 1.0 | 2.0 | 0.00 | 0.00 | 0.00 | 65 | 1018.9 |
| 20260902143010 | 87 | 196 | 1.0 | 1.0 | 0.00 | 0.00 | 0.00 | 67 | 1019.1 |
| 20260902142506 | 87 | 337 | 3.0 | 2.0 | 0.00 | 0.00 | 0.00 | 67 | 1019.3 |
| 20260902142001 | 87 | 29 | 3.0 | 3.0 | 0.00 | 0.00 | 0.00 | 66 | 1019.2 |
| 20260902141456 | 86 | 191 | 2.0 | 2.0 | 0.00 | 0.00 | 0.00 | 69 | 1018.8 |
| 20260902140955 | 86 | 192 | 1.0 | 1.0 | 0.00 | 0.00 | 0.00 | 71 | 1019.0 |
| 20260902140451 | 86 | 356 | 2.0 | 2.0 | 0.00 | 0.00 | 0.00 | 70 | 1019.0 |
| 20260902135950 | 85 | 232 | 2.0 | 2.0 | 0.00 | 0.00 | 0.00 | 70 | 1018.9 |
| 20260902135446 | 85 | 233 | 3.0 | 3.0 | 0.00 | 0.00 | 0.00 | 71 | 1018.7 |
| 20260902134945 | 85 | 192 | 0.0 | 1.0 | 0.00 | 0.00 | 0.00 | 72 | 1019.1 |
| 20260902134441 | 84 | 164 | 2.0 | 1.0 | 0.00 | 0.00 | 0.00 | 72 | 1018.8 |
| 20260902133936 | 84 | 107 | 1.0 | 2.0 | 0.00 | 0.00 | 0.00 | 72 | 1018.9 |
| 20260902133431 | 84 | 87 | 1.0 | 1.0 | 0.00 | 0.00 | 0.00 | 72 | 1019.0 |
| 20260902132926 | 83 | 92 | 0.0 | 0.0 | 0.00 | 0.00 | 0.00 | 74 | 1018.6 |
| 20260902132421 | 83 | 161 | 1.0 | 1.0 | 0.00 | 0.00 | 0.00 | 74 | 1018.8 |
| 20260902131916 | 84 | 43 | 1.0 | 1.0 | 0.00 | 0.00 | 0.00 | 74 | 1018.8 |
| 20260902131413 | 83 | 83 | 1.0 | 1.0 | 0.00 | 0.00 | 0.00 | 73 | 1018.9 |
| 20260902130912 | 82 | 54 | 3.0 | 3.0 | 0.00 | 0.00 | 0.00 | 75 | 1018.8 |
| 20260902130408 | 82 | 45 | 2.0 | 2.0 | 0.00 | 0.00 | 0.00 | 75 | 1019.1 |
| 20260902125903 | 82 | 12 | 2.0 | 2.0 | 0.00 | 0.00 | 0.00 | 77 | 1018.9 |
| 20260902125359 | 81 | 84 | 1.0 | 2.0 | 0.00 | 0.00 | 0.00 | 77 | 1018.8 |
| 20260902124855 | 81 | 31 | 1.0 | 1.0 | 0.00 | 0.00 | 0.00 | 78 | 1018.7 |
| 20260902124350 | 80 | 149 | 1.0 | 1.0 | 0.00 | 0.00 | 0.00 | 79 | 1018.7 |
| 20260902123845 | 80 | 1 | 3.0 | 2.0 | 0.00 | 0.00 | 0.00 | 79 | 1018.9 |
| 20260902123342 | 80 | 341 | 1.0 | 1.0 | 0.00 | 0.00 | 0.00 | 80 | 1019.1 |
| 20260902122840 | 80 | 226 | 3.0 | 3.0 | 0.00 | 0.00 | 0.00 | 80 | 1018.8 |
| 20260902122336 | 80 | 197 | 1.0 | 1.0 | 0.00 | 0.00 | 0.00 | 81 | 1018.7 |
| 20260902121836 | 79 | 140 | 1.0 | 1.0 | 0.00 | 0.00 | 0.00 | 82 | 1018.6 |
| 20260902121331 | 78 | 276 | 4.0 | 6.0 | 0.00 | 0.00 | 0.00 | 83 | 1018.7 |
| 20260902120826 | 78 | 43 | 2.0 | 2.0 | 0.00 | 0.00 | 0.00 | 84 | 1018.6 |
| 20260902120323 | 77 | 258 | 3.0 | 3.0 | 0.00 | 0.00 | 0.00 | 85 | 1018.7 |
| 20260902115817 | 77 | 2 | 2.0 | 2.0 | 0.00 | 0.00 | 0.00 | 87 | 1018.7 |
| 20260902115314 | 76 | 46 | 0.0 | 0.0 | 0.00 | 0.00 | 0.00 | 87 | 1018.7 |
| 20260902114810 | 76 | 10 | 2.0 | 2.0 | 0.00 | 0.00 | 0.00 | 88 | 1018.4 |
| 20260902114305 | 76 | 21 | 2.0 | 2.0 | 0.00 | 0.00 | 0.00 | 88 | 1018.7 |
| 20260902113800 | 76 | 165 | 0.0 | 0.0 | 0.00 | 0.00 | 0.00 | 88 | 1018.3 |
| 20260902113255 | 76 | 78 | 0.0 | 0.0 | 0.00 | 0.00 | 0.00 | 88 | 1018.3 |
| 20260902112754 | 76 | 318 | 0.0 | 0.0 | 0.00 | 0.00 | 0.00 | 88 | 1018.0 |
| 20260902112251 | 75 | 35 | 1.0 | 1.0 | 0.00 | 0.00 | 0.00 | 89 | 1018.1 |
| 20260902111746 | 75 | 70 | 0.0 | 0.0 | 0.00 | 0.00 | 0.00 | 89 | 1018.2 |
| 20260902111243 | 75 | 45 | 1.0 | 1.0 | 0.00 | 0.00 | 0.00 | 89 | 1018.2 |
| 20260902110738 | 75 | 10 | 1.0 | 1.0 | 0.00 | 0.00 | 0.00 | 89 | 1018.2 |
| 20260902110234 | 75 | 120 | 0.0 | 1.0 | 0.00 | 0.00 | 0.00 | 90 | 1018.1 |
| 20260902105733 | 75 | 73 | 0.0 | 0.0 | 0.00 | 0.00 | 0.00 | 91 | 1018.1 |
| 20260902105229 | 75 | 61 | 1.0 | 0.0 | 0.00 | 0.00 | 0.00 | 91 | 1018.1 |
| 20260902104724 | 75 | 86 | 0.0 | 0.0 | 0.00 | 0.00 | 0.00 | 92 | 1018.3 |
| 20260902104220 | 74 | 252 | 1.0 | 1.0 | 0.00 | 0.00 | 0.00 | 93 | 1018.2 |
| 20260902103719 | 74 | 112 | 0.0 | 0.0 | 0.00 | 0.00 | 0.00 | 93 | 1018.3 |
| 20260902103214 | 74 | 130 | 0.0 | 0.0 | 0.00 | 0.00 | 0.00 | 93 | 1018.2 |